www.pogodaiklimat.ru

Погода и климат >> Архив погоды >> Боливия >> Сан-Хоакин


ПОГОДА в Сан-Хоакине

  • Прогноз погоды в Сан-Хоакине
  • Монитор погоды в Сан-Хоакине

АРХИВ ПОГОДЫ в Сан-Хоакине

Время (UTC), дата Ветер
(напр.,м/с)
 
Видим.   Явления Облачность Т
(С)
Тd
(С)
f
(%)
Тe
(С)
Тes
(С)
Комфортность P
(гПа)
Po
(гПа)
Тmin
(С)
Tmax
(С)
R
(мм)
R24
(мм)
S
(см)
15 18.06 штиль 0 15 км 9/0
[Cs]
+30.0 +24.0 70 +41 +55 опасность
перегрева
1015.0 998.8
18 18.06 СЗ 3 15 км 8/5 500 м
[Cu med, cong Ci]
+31.7 +23.8 63 +43 +47 опасность
перегрева
1012.6 996.5
21 18.06 штиль 0 15 км 9/1 500 м
[Cu med, cong Ci]
+29.8 +23.4 69 +40 +41 очень
душно
1011.8 995.8 +33.1
12 19.06 штиль 0 15 км 4/0
[Ci fib]
+21.0 +20.3 96 +26 +28 душно 1014.4 998.1 +19.2
15 19.06 С 2 15 км 4/1 500 м
[Cu hum Ci fib]
+30.6 +23.0 64 +41 +51 опасность
перегрева
1016.3 1000.2
18 19.06 В 2 15 км 4/4 500 м
[Cu med, cong]
+32.5 +23.1 58 +43 +50 опасность
перегрева
1015.0 998.9
21 19.06 штиль 0 15 км 3/1 500 м
[Cu med, cong Ci fib]
+32.7 +23.7 59 +44 +45 опасность
перегрева
1014.1 998.0 +34.1
12 20.06 ЮВ 3 15 км 3/3 360 м
[Sc]
+17.7 +16.6 93 +18 +19 1017.5 1001.0 +16.9
15 20.06 ЮВ 3 15 км ясно +25.3 +19.9 72 +31 +42 очень
душно
1018.0 1001.5
18 20.06 ЮВ 3 15 км 3/0
[Ci fib]
+29.0 +21.3 63 +37 +46 очень
душно
1016.7 1000.5
21 20.06 ЮВ 3 15 км 4/1 600 м
[Cu hum Ci fib]
+30.4 +22.5 63 +40 +41 очень
душно
1015.3 999.0 +31.4
12 21.06 Ю 3 15 км 6/0
[Ci]
+19.7 +17.7 88 +22 +24 комфорт 1016.4 1000.1 +17.3
15 21.06 Ю 3 15 км 6/0
[Ci]
+26.1 +20.1 70 +32 +41 очень
душно
1017.4 1001.2
18 21.06 Ю 3 15 км 8/1 500 м
[Cu hum Ci]
+31.5 +21.6 56 +40 +47 очень
душно
1015.9 999.8
21 21.06 штиль 0 15 км 8/1 500 м
[Cu hum Ci]
+32.7 +23.3 58 +43 +44 опасность
перегрева
1014.8 998.7 +33.2
12 22.06 штиль 0 15 км 3/0
[Ci fib]
+21.1 +20.2 95 +26 +28 душно 1016.7 1000.4 +19.6
15 22.06 Ю 2 15 км 1/1 600 м
[Cu Sc As op]
+29.3 +22.9 68 +39 +50 очень
душно
1018.0 1001.8
18 22.06 Ю 3 15 км 4/4 500 м
[Cu med, cong]
+32.7 +22.0 53 +41 +47 опасность
перегрева
1016.6 1000.5
21 22.06 штиль 0 15 км 3/3 500 м
[Cu med, cong]
+33.6 +20.9 47 +41 +42 опасность
перегрева
1015.2 999.1 +35.1
12 23.06 штиль 0 15 км ясно +20.0 +19.1 95 +23 +26 комфорт 1016.0 999.7 +18.2
15 23.06 Ю 2 15 км ясно +30.0 +23.9 70 +41 +54 опасность
перегрева
1016.9 1000.8
18 23.06 СЗ 3 15 км 5/5 500 м
[Cu med, cong]
+33.5 +21.9 51 +42 +47 опасность
перегрева
1015.0 998.9
21 23.06 штиль 0 15 км 3/3 500 м
[Cu med, cong]
+34.1 +21.3 47 +42 +43 опасность
перегрева
1013.0 997.0 +35.1
12 24.06 штиль 0 15 км ясно +20.0 +19.0 94 +23 +26 комфорт 1012.8 996.5 +18.7
15 24.06 СЗ 3 15 км 1/1 500 м
[Cu hum]
+30.0 +22.2 63 +39 +48 очень
душно
1013.2 997.1
18 24.06 СЗ 2 15 км 5/5 500 м
[Cu med, cong]
+32.1 +22.3 56 +41 +47 опасность
перегрева
1011.0 995.0
21 24.06 СЗ 2 15 км 3/3 500 м
[Cu med, cong]
+31.5 +22.4 59 +41 +42 опасность
перегрева
1009.6 993.6 +33.4
12 25.06 СВ 2 15 км 4/1 500 м
[Cu med, cong Ac trans]
+23.5 +22.1 92 +30 +32 очень
душно
1009.1 992.9 +21.4

 

Местоположение метеостанции Сан-Хоакин (Боливия): широта -13.06 долгота -64.81 высота над уровнем моря 140 м.

В архиве по умолчанию представлена погода в Сан-Хоакине за последнюю неделю. Архивные данные за месяц целиком и за предыдущие месяцы, начиная с января 2011 года, Вы можете получить, выбрав интересующий диапазон дат из раскрывающегося списка и нажав кнопку "Ввод!".


*Определитесь, кто Вы:
робот инопланетянин человек

Внимание! Время в таблицах - всемирное. Для получения местного времени необходимо прибавить поправку, которая равна -4 ч.

Смотрите также архив погоды в соседних городах и на ближайших метеорологических станциях:

Погода в Сан-Рамоне (Боливия) (29 км)
Погода в Магдалене (Боливия) (82 км)
Погода в Бауресе (Боливия) (102 км)
Погода в Санта-Ане (Боливия) (103 км)
Погода в Тринидаде (Боливия) (195 км)
Погода в Сан Игнасио де Moксосе (Боливия) (223 км)
Погода в Санта-Розе (Боливия) (257 км)
Погода в Риберальте (Боливия) (269 км)
Погода в Сан-Борхе (Боливия) (298 км)
Погода в Рейесе (Боливия) (311 км)

Пояснения к столбцам:

Ветер - указаны скорость ветра в м/с - средняя за 10 мин, порывы в срок и между сроками (в фигурных скобках) и направление, откуда дует ветер: С - северный, СВ - северо-восточный, В - восточный, ЮВ - юго-восточный, Ю - южный, ЮЗ - юго-западный, З - западный, СЗ - северо-западный.
Видимость - горизонтальная дальность видимости в метрах или километрах. При видимости от 1 до 10 км при отсутствии осадков обычно наблюдается дымка, при ухудшении видимости до 1 км и менее - туман. В сухую погоду видимость может ухудшаться дымом, пылью или мглою.
Явления - указаны атмосферные явления, наблюдавшиеся в срок или в последний час перед сроком; фигурными скобками обозначены явления, наблюдавшиеся между сроками (за 1-3 часа до срока); квадратными скобками обозначены град или гололедные отложения с указанием их диаметра в мм.
Облачность - указаны через наклонную черту общая и нижняя облачность в баллах и высота нижней границы облаков в метрах; квадратными скобками обозначены формы облаков: Ci - перистые, Cs - перисто-слоистые, Cc - перисто-кучевые, Ac - высококучевые, As - высокослоистые, Sc - слоисто-кучевые, Ns - слоисто-дождевые, Cu - кучевые, Cb - кучево-дождевые. Подробнее классификацию облаков см. в Атласе облаков (PDF).
T - Температура воздуха - температура, измеренная на высоте 2 м над землей.
Td - Температура точки росы - температура, при понижении до которой содержащийся в воздухе водяной пар достигнет насыщения.
f - Относительная влажность воздуха - влажноcть воздуха, измеренная на высоте 2 м над землей.
Te - Эффективная температура - температура, которую ощущает одетый по сезону человек в тени. Характеристика душности погоды. При расчете учитывается влияние влажности воздуха и скорости ветра на теплоощущения человека.
Tes - Эффективная температура на солнце - температура, которую ощущает человек, с поправкой на солнечный нагрев. Характеристика знойности погоды. Зависит от высоты солнца над горизонтом, облачности и скорости ветра. Ночью, в пасмурную погоду, а также при ветре 12 м/с и более поправка равна нулю.
P - Атмосферное давление - приведенное к уровню моря атмосферное давление.
Po - Атмосферное давление - измеренное на уровне метеостанции атмосферное давление.
Tmin - Минимальная температура - минимум температуры воздуха на высоте 2 м над землей.
Tmax - Максимальная температура - максимум температуры воздуха на высоте 2 м над землей.
R - Количество осадков - Количество выпавших осадков за период времени, мм. При наведении курсора мыши на число - период времени, за который выпало указанное количество осадков.
R24 - Количество осадков - Количество выпавших осадков за 24 часа, мм.
S - Снежный покров - Высота снежного покрова, см. При наведении курсора мыши на число - состояние снежного покрова и степень покрытия местности в баллах.